Weather History for Hamilton, OH

Change the Weather History Date:

Thursday, June 13, 2013

  Actual Average (KCVG) Record (KCVG)
Temperature  
Mean Temperature 74 °F 72 °F  
Max Temperature 82 °F 82 °F 94 °F (1976)
Min Temperature 66 °F 62 °F 44 °F (1963)
Degree Days  
Heating Degree Days 0 0  
Month to date heating degree days 12  
Since 1 June heating degree days 12  
Since 1 July heating degree days 4972  
Cooling Degree Days 9 7  
Month to date cooling degree days 76  
Year to date cooling degree days 170  
Since 1 June cooling degree days 76  
Growing Degree Days 24 (Base 50)    
Moisture  
Dew Point 65 °F    
Average Humidity 78    
Maximum Humidity 100    
Minimum Humidity 45    
Precipitation  
Precipitation 1.07 in 0.14 in 1.90 in (1881)
Month to date precipitation 1.91  
Year to date precipitation 20.50  
Snow  
Snow 0.00 in 0.00 in 0.00 in ()
Month to date snowfall 0.0  
Since 1 June snowfall 0.0  
Since 1 July snowfall 22.1  
Snow Depth -    
Sea Level Pressure  
Sea Level Pressure 29.74 in    
Wind  
Wind Speed 9 mph (NW)    
Max Wind Speed 30 mph    
Max Gust Speed 37 mph    
Visibility 8 miles    
Events Fog , Rain , Thunderstorm    
T = Trace of Precipitation, MM = Missing Value Source: NWS Daily Summary

Daily Weather History Graph

Daily Weather History Graph

Search for Another Location

Airport:

Trip Planner

Search our weather history database for the weather conditions in past years. The results will help you decide how hot, cold, wet, or windy it might be!

Date:

Astronomy

Jun. 13, 2013 Rise Set
Actual Time 6:10 AM EDT 9:05 PM EDT
Civil Twilight 5:38 AM EDT 9:38 PM EDT
Nautical Twilight 4:57 AM EDT 10:19 PM EDT
Astronomical Twilight 4:10 AM EDT 11:06 PM EDT
Moon 10:45 AM EDT (6/13) No Moon Set
Length of Visible Light 15h 59m
Length of Day
14h 55m
Waxing Crescent, 21% of the Moon is Illuminated
Jun 13
Waxing Crescent
Jun 16
First Quarter
Jun 23
Full
Jun 30
Last Quarter
Jul 8
New

Hourly Weather History & Observations

Time (EDT) Temp. Heat Index Dew Point Humidity Pressure Visibility Wind Dir Wind Speed Gust Speed Precip Events Conditions
12:53 AM 82.9 °F 88.0 °F 72.0 °F 69% 29.70 in 10.0 mi SW 6.9 mph 17.3 mph N/A   Partly Cloudy
1:53 AM 82.9 °F 88.0 °F 72.0 °F 69% 29.67 in 10.0 mi SW 9.2 mph 20.7 mph N/A   Scattered Clouds
2:33 AM 82.4 °F 87.2 °F 71.6 °F 70% 29.67 in 10.0 mi SW 13.8 mph 26.5 mph 0.00 in Thunderstorm Mostly Cloudy
2:48 AM 80.6 °F 85.4 °F 73.4 °F 79% 29.67 in 9.0 mi WSW 8.1 mph 19.6 mph 0.00 in Rain Light Rain
2:53 AM 80.1 °F 84.2 °F 73.0 °F 79% 29.65 in 9.0 mi WSW 11.5 mph 20.7 mph 0.00 in Rain Light Rain
3:53 AM 71.1 °F - 66.0 °F 84% 29.66 in 10.0 mi NNE 10.4 mph 21.9 mph 0.00 in Rain Light Rain
4:53 AM 71.1 °F - 66.0 °F 84% 29.66 in 10.0 mi NNE 6.9 mph - 0.00 in   Overcast
5:53 AM 71.1 °F - 66.0 °F 84% 29.67 in 10.0 mi Variable 5.8 mph - N/A Thunderstorm Thunderstorm
6:08 AM 69.8 °F - 66.2 °F 88% 29.65 in 2.0 mi Variable 3.5 mph - 0.11 in Rain , Thunderstorm Light Thunderstorms and Rain
6:17 AM 71.6 °F - 66.2 °F 83% 29.66 in 10.0 mi WSW 4.6 mph - 0.11 in Thunderstorm Scattered Clouds
6:27 AM 69.8 °F - 66.2 °F 88% 29.65 in 1.0 mi SW 8.1 mph - 0.21 in Rain Heavy Rain
6:37 AM 69.8 °F - 66.2 °F 88% 29.65 in 4.0 mi WSW 3.5 mph - 0.21 in Rain Light Rain
6:53 AM 70.0 °F - 66.9 °F 90% 29.64 in 10.0 mi Calm Calm - 0.21 in   Partly Cloudy
7:53 AM 73.9 °F - 70.0 °F 87% 29.62 in 10.0 mi Calm Calm - N/A   Clear
8:07 AM 73.4 °F - 69.8 °F 88% 29.63 in 10.0 mi Calm Calm - N/A Thunderstorm Partly Cloudy
8:43 AM 73.4 °F - 69.8 °F 88% 29.70 in 1.8 mi NW 29.9 mph 36.8 mph 0.19 in Rain , Thunderstorm Heavy Thunderstorms and Rain
8:45 AM 71.6 °F - 69.8 °F 94% 29.69 in 1.0 mi NW 24.2 mph 36.8 mph 0.36 in Rain , Thunderstorm Heavy Thunderstorms and Rain
8:50 AM 68.0 °F - 66.2 °F 94% 29.71 in 0.5 mi NW 16.1 mph 36.8 mph 0.64 in Fog , Rain , Thunderstorm Heavy Thunderstorms and Rain
8:53 AM 68.0 °F - 66.0 °F 93% 29.69 in 0.5 mi NNW 9.2 mph 36.8 mph 0.77 in Fog , Rain , Thunderstorm Heavy Thunderstorms and Rain
8:57 AM 66.2 °F - 66.2 °F 100% 29.71 in 1.0 mi WNW 8.1 mph 25.3 mph 0.02 in Rain , Thunderstorm Heavy Thunderstorms and Rain
9:03 AM 68.0 °F - 66.2 °F 94% 29.71 in 3.0 mi NW 6.9 mph - 0.04 in Rain , Thunderstorm Heavy Thunderstorms and Rain
9:15 AM 68.0 °F - 66.2 °F 94% 29.71 in 7.0 mi NW 8.1 mph - 0.06 in Rain , Thunderstorm Light Thunderstorms and Rain
9:31 AM 68.0 °F - 68.0 °F 100% 29.73 in 8.0 mi West 5.8 mph - 0.07 in Rain Light Rain
9:49 AM 68.0 °F - 68.0 °F 100% 29.73 in 10.0 mi NNW 3.5 mph - 0.08 in Rain Light Rain
9:53 AM 68.0 °F - 68.0 °F 100% 29.71 in 10.0 mi North 5.8 mph - 0.08 in   Overcast
10:09 AM 69.8 °F - 66.2 °F 88% 29.72 in 10.0 mi NNW 6.9 mph - N/A   Overcast
10:53 AM 71.1 °F - 66.0 °F 84% 29.72 in 10.0 mi NNW 9.2 mph - N/A   Mostly Cloudy
11:18 AM 71.6 °F - 66.2 °F 83% 29.75 in 10.0 mi NNW 13.8 mph 21.9 mph N/A   Mostly Cloudy
11:53 AM 71.1 °F - 64.9 °F 81% 29.76 in 10.0 mi NNW 9.2 mph - N/A   Overcast
12:23 PM 73.4 °F - 66.2 °F 78% 29.79 in 10.0 mi NNW 9.2 mph 18.4 mph N/A   Overcast
12:31 PM 73.4 °F - 64.4 °F 73% 29.79 in 10.0 mi NW 15.0 mph 21.9 mph N/A   Overcast
12:53 PM 73.9 °F - 64.9 °F 73% 29.78 in 10.0 mi NNW 11.5 mph 21.9 mph N/A   Overcast
1:00 PM 73.4 °F - 64.4 °F 73% 29.81 in 10.0 mi NNW 19.6 mph 28.8 mph N/A   Overcast
1:23 PM 69.8 °F - 64.4 °F 83% 29.81 in 9.0 mi NNW 8.1 mph - 0.01 in   Overcast
1:53 PM 73.9 °F - 64.0 °F 71% 29.80 in 10.0 mi North 8.1 mph - 0.01 in   Overcast
2:53 PM 75.9 °F - 60.1 °F 58% 29.83 in 10.0 mi NNW 15.0 mph 20.7 mph N/A   Clear
3:53 PM 78.1 °F - 59.0 °F 52% 29.85 in 10.0 mi NNW 15.0 mph 19.6 mph N/A   Partly Cloudy
4:53 PM 78.1 °F - 57.0 °F 48% 29.85 in 10.0 mi NNW 15.0 mph 20.7 mph N/A   Partly Cloudy
5:53 PM 79.0 °F - 55.9 °F 45% 29.85 in 10.0 mi North 12.7 mph 20.7 mph N/A   Partly Cloudy
6:53 PM 78.1 °F - 55.0 °F 45% 29.86 in 10.0 mi NNW 15.0 mph 20.7 mph N/A   Partly Cloudy
7:53 PM 75.9 °F - 55.9 °F 50% 29.86 in 10.0 mi NW 12.7 mph - N/A   Partly Cloudy
8:53 PM 73.0 °F - 55.9 °F 55% 29.88 in 10.0 mi NNW 5.8 mph - N/A   Clear
9:53 PM 70.0 °F - 55.9 °F 61% 29.90 in 10.0 mi NW 9.2 mph - N/A   Clear
10:53 PM 68.0 °F - 55.0 °F 63% 29.94 in 10.0 mi NW 10.4 mph - N/A   Clear
11:53 PM 66.0 °F - 53.1 °F 63% 29.94 in 10.0 mi NW 9.2 mph - N/A   Clear